Lid_Strength_Index
3 3 4 6 10 11 13 11 8 9 8 6 5 7 8 7 9 12 1 0 0 0 -1 -1 -1 -1 -1 -1 -1 -1 -1 -2 -1 -1 -1 -1 -1 -1 -1 -1 -1 -1 -1 -1 -1 -1 -1 -1 -1
4 4 4 7 11 14 13 8 9 8 6 5 5 6 7 9 4 4 3 1 -0 -0 -0 -1 -1 -1 -1 -1 -1 -1 -1 -1 -2 -2 -1 -1 -1 -1 -1 -2 -1 -2 -1 -1 -1 -1 -1 -1 -1
3 3 7 10 12 13 12 9 8 7 5 6 7 5 6 7 4 3 1 0 -0 -0 -1 -1 -1 -1 -1 -1 -1 -1 -1 -1 -1 -1 -1 -1 -1 -1 -1 -1 -1 -1 -1 -1 -1 -2 -1 -1 -1
4 6 7 11 13 12 10 8 7 7 6 5 6 8 6 3 4 5 4 3 0 -0 -1 -1 -2 -2 -2 -2 -2 -2 -1 -1 -2 -2 -2 -2 -1 -1 -2 -2 -1 -1 -1 -1 -1 -1 -1 -1 -0
6 8 11 12 13 9 7 6 6 8 7 6 6 8 7 5 5 5 4 3 3 -0 -1 -1 -1 -3 -3 -3 -3 -2 -2 -2 -2 -1 -1 -2 -2 -2 -2 -1 -1 -1 -1 -2 -1 -1 -1 -1 -1
9 9 13 13 11 8 7 6 6 7 7 7 8 8 7 4 4 4 3 4 3 3 2 -1 -3 -2 -4 -4 -4 -4 -3 -3 -3 -3 -3 -2 -2 -0 -1 -1 -1 -2 -2 -2 -1 -1 -1 -1 -1
10 11 13 12 10 9 8 5 7 7 7 8 6 9 6 5 5 4 4 5 4 3 3 3 3 1 -2 -4 -3 -2 -3 -3 -3 -3 -3 -2 -2 -1 -1 -1 -2 -1 -0 -1 -1 -1 -1 0 -0
9 11 11 11 11 11 7 7 7 9 7 4 5 9 8 6 4 5 5 4 4 3 3 3 3 3 3 3 -2 -2 -2 -2 -2 -2 -2 -1 -1 -1 -0 -1 -0 -1 -2 -2 -2 -2 -1 -0 -0
8 12 13 11 10 9 7 7 6 6 7 8 8 7 5 5 4 5 5 5 5 3 3 3 2 2 2 2 1 -0 -2 -1 -2 -0 -1 1 2 2 2 0 -0 -1 -1 -0 0 0 -1 -0 1
9 12 12 9 7 7 7 7 7 7 8 8 7 6 5 5 6 6 6 5 5 5 4 3 3 2 2 2 3 3 2 3 3 2 3 3 3 2 2 2 1 0 1 1 1 1 1 1 2
9 10 7 7 6 7 8 8 7 8 10 8 8 7 6 6 7 6 6 5 5 4 3 3 3 3 3 3 3 3 3 3 3 3 3 3 3 3 3 3 3 3 3 5 5 4 4 3 2
8 7 7 7 7 8 9 8 9 9 9 7 7 6 7 7 7 7 6 6 5 4 4 3 4 4 4 3 3 3 3 3 3 4 5 5 5 5 5 5 5 5 6 6 6 5 6 6 5
7 7 7 7 7 8 7 9 10 9 7 7 7 7 8 7 7 6 5 5 5 5 4 4 5 6 5 4 4 4 4 4 4 5 5 6 6 7 7 6 6 6 7 6 7 7 6 7 7
7 7 7 7 7 7 9 9 9 9 7 8 8 8 7 7 6 6 6 6 5 5 5 5 6 6 5 5 5 5 4 4 4 5 6 7 8 8 8 7 7 7 7 7 7 7 7 7 7
6 9 8 8 8 9 8 11 11 8 7 9 9 8 8 7 7 7 6 6 6 6 6 6 6 6 6 6 5 5 5 4 6 6 7 8 8 8 8 7 7 7 7 7 7 6 6 7 7
8 8 11 9 8 8 10 13 9 8 9 10 9 9 8 8 8 8 6 6 6 7 8 6 6 7 7 7 6 6 6 6 7 7 7 8 7 8 8 8 8 7 7 7 7 7 8 8 7
11 13 12 11 8 8 10 12 9 8 9 9 10 10 9 9 8 7 7 7 7 8 7 7 8 8 8 8 7 7 7 7 7 8 8 8 8 8 8 8 8 7 7 8 8 8 8 8 8
13 12 13 13 11 10 10 11 9 9 9 10 10 10 10 10 9 7 8 8 8 8 8 8 8 9 9 8 8 8 8 8 8 8 8 8 9 8 8 8 8 8 8 9 9 8 8 8 8
11 11 13 12 10 10 10 11 10 10 10 10 11 11 11 10 9 8 8 8 8 8 8 8 9 9 10 10 11 10 10 9 9 8 8 9 9 9 8 9 9 8 9 10 10 9 9 9 8
10 11 12 10 9 10 11 11 10 10 10 10 11 11 11 11 10 8 9 9 9 9 9 9 9 10 10 10 11 11 10 9 9 9 9 9 10 9 9 10 10 9 9 10 11 11 11 9 9
12 13 13 12 10 11 11 13 12 10 9 9 10 10 10 11 11 9 9 9 10 10 10 10 10 10 10 10 10 10 10 9 10 10 11 11 10 10 10 11 10 10 10 10 10 10 11 12 10
14 11 11 12 13 15 12 17 13 11 11 10 10 11 11 11 10 10 10 10 11 11 10 10 10 11 10 10 11 12 11 11 11 10 11 11 11 11 11 11 11 10 11 12 11 10 11 11 13
12 10 11 12 14 14 13 15 14 11 12 11 11 11 11 11 11 11 10 10 10 11 11 11 11 11 11 11 11 12 12 11 11 11 11 12 12 11 11 11 11 10 11 12 12 12 11 11 12
9 11 12 13 14 17 14 14 15 13 11 11 11 11 10 11 11 10 9 10 11 11 11 12 11 11 11 12 12 11 12 11 11 12 12 12 12 12 11 11 11 11 11 12 12 12 11 12 12
11 14 17 18 17 17 12 13 14 12 9 10 11 11 11 10 11 10 11 11 11 12 12 11 12 12 12 12 12 12 12 11 11 12 12 13 12 12 12 12 12 12 10 12 12 12 12 12 12
13 14 17 19 18 16 12 15 14 11 10 10 10 10 10 11 10 11 11 11 12 12 12 12 12 12 12 12 12 12 11 11 11 12 12 12 12 12 12 12 12 12 11 12 12 12 12 12 13
13 14 12 15 14 17 15 14 12 11 11 10 10 10 11 11 11 11 11 12 12 12 12 13 13 12 12 12 12 12 11 11 11 12 12 12 12 11 12 12 12 12 11 12 12 12 13 12 12
13 12 15 15 18 19 15 15 15 13 12 11 11 12 11 11 11 11 12 12 12 12 12 12 12 13 12 12 12 12 12 11 11 11 12 12 12 11 12 12 12 12 11 13 12 12 12 12 12
13 14 13 13 15 18 19 16 11 11 10 11 11 11 11 12 12 12 12 12 12 12 12 13 12 13 13 13 12 12 12 12 12 12 12 12 12 11 12 12 12 12 12 13 13 12 12 12 12
14 13 12 16 16 14 16 17 10 11 10 11 11 10 11 11 12 12 12 12 12 12 12 13 13 13 13 13 12 12 12 12 12 12 12 11 11 11 11 11 11 11 12 13 13 13 12 12 13